Location: Oakhurst
(33.6448°N, 111.9543°W)
Time: 04:17:56
(UTC+00:00)

QB50P2 - Pass Details

Date: 30 July 2021
Orbit: 593 x 608 km, 97.9° (Epoch: 26 September)

Event Time Altitude Azimuth Distance (km) Brightness Sun altitude
Rises 08:22:45 0° 12° (NNE) 2,856 ? -36.7°
Reaches altitude 10° 08:24:55 10° 13° (NNE) 1,952 ? -36.6°
Enters shadow 08:25:47 16° 13° (NNE) 1,602 ? -36.5°
